Temperature
17 17 17 18 18 18 17 17 17 17 17 17 17 16 16 16 16 16 16 15 15 15 15 15 15 14 14 14 14 14 13 13 13 13 13 13 13 12
17 17 17 17 17 17 17 17 17 17 16 16 16 16 16 16 15 15 15 15 15 14 14 14 14 14 14 14 13 13 13 13 13 12 12 12 12 12
17 17 17 17 17 17 17 17 16 16 16 16 15 15 15 15 15 15 14 14 14 14 14 14 13 13 13 13 13 13 12 12 12 12 12 11 11 11
16 16 16 16 16 16 16 16 16 16 16 15 15 15 14 14 14 14 14 13 13 13 13 13 13 12 12 12 12 12 11 11 11 11 11 11 10 10
16 16 16 16 16 16 16 16 15 15 15 15 14 14 14 14 13 13 13 13 12 12 12 12 12 12 11 11 11 11 11 11 11 10 10 10 10 9
15 15 15 15 15 15 15 15 15 15 15 14 14 13 13 13 13 12 12 12 12 12 11 11 11 11 11 11 10 10 10 10 10 9 9 9 9 9
15 15 15 15 15 14 14 14 14 14 14 14 13 13 13 13 12 12 12 12 11 11 11 11 11 10 10 10 10 9 9 9 9 9 8 8 8 8
14 14 14 14 14 14 14 14 14 14 13 13 13 12 12 12 12 12 12 11 11 10 10 10 10 10 9 9 9 9 9 8 8 8 8 8 8 7
14 14 13 14 13 13 13 13 13 13 13 13 12 12 12 11 11 11 11 11 11 10 10 10 9 9 9 9 9 8 8 8 8 8 7 7 7 7
13 13 13 13 13 13 13 13 13 12 12 12 12 11 11 11 11 11 10 10 10 10 10 9 9 9 9 9 8 8 8 8 7 7 7 7 7 6
13 13 12 12 12 12 12 12 12 11 11 11 11 11 11 10 10 10 10 10 9 9 9 9 9 8 8 8 8 8 8 7 7 7 6 6 6 6
12 12 12 12 11 11 11 11 11 10 10 10 10 10 10 10 9 10 10 9 9 9 8 8 8 8 8 8 8 8 7 7 7 7 6 6 6 6
11 11 11 11 11 11 11 10 10 10 10 10 9 9 9 9 9 9 9 9 9 8 8 8 8 8 8 8 8 7 7 7 7 6 6 6 6 6
11 11 11 10 10 10 10 10 10 9 9 9 9 9 8 8 8 8 8 8 8 8 8 8 7 7 7 7 7 7 7 7 7 6 6 6 6 5
11 10 10 10 9 9 9 9 9 9 9 9 9 8 8 8 8 8 8 8 8 8 8 7 7 7 7 7 7 7 7 7 6 6 6 6 5 5
10 10 9 9 9 9 9 9 9 9 8 8 8 8 8 8 8 8 8 8 8 8 7 7 7 7 7 7 7 7 7 6 6 6 6 5 5 5
10 9 9 9 9 8 8 8 8 8 8 8 8 8 8 8 8 7 7 8 8 7 7 7 7 7 7 7 7 7 6 6 6 6 5 5 5 5
9 9 9 9 9 8 8 8 8 8 8 8 7 8 8 8 7 7 7 7 7 7 7 7 7 7 7 6 6 6 6 6 6 6 5 5 5 5
9 9 8 8 8 8 8 8 8 7 7 7 7 7 7 7 7 7 7 7 7 7 7 7 7 6 6 6 6 6 6 6 6 5 5 5 5 5
8 8 8 8 8 8 8 8 7 7 7 7 7 7 7 7 7 7 7 7 7 7 7 7 7 6 6 6 6 6 6 6 6 6 5 5 5 5
8 8 8 8 8 7 7 7 7 7 7 7 7 7 7 7 7 7 7 7 7 7 7 7 7 6 6 6 6 6 6 6 6 6 6 5 5 5
8 8 8 8 7 7 7 7 7 7 7 7 7 7 7 7 7 7 7 7 7 7 7 6 6 6 6 6 6 6 6 6 6 6 6 5 5 5
8 8 8 7 7 7 7 7 7 7 7 6 6 6 6 6 6 6 7 7 6 6 6 6 6 6 6 6 6 6 6 6 6 6 6 6 5 5
Wind_Speed
4 3 3 3 3 2 2 2 3 3 2 1 0 2 4 4 7 7 6 8 10 10 9 8 7 7 6 5 5 4 3 3 3 2 3 3 3 3
2 2 2 2 2 2 1 1 1 1 2 1 0 1 3 5 7 8 8 9 9 9 9 8 7 7 6 6 5 5 4 4 4 3 3 4 4 5
2 1 2 2 1 2 2 1 0 1 2 1 0 1 2 3 5 6 7 8 8 9 10 10 9 9 8 8 7 6 5 4 4 4 4 5 5 5
1 1 1 1 0 1 2 1 1 0 2 3 2 1 1 2 3 4 5 7 8 10 11 11 11 11 10 9 8 7 6 6 6 6 6 6 5 5
2 2 2 2 2 1 1 2 1 1 1 3 2 1 1 2 2 3 5 5 7 8 9 10 10 11 11 9 8 8 7 7 7 7 7 6 6 5
4 4 4 3 2 2 2 2 1 1 1 2 3 2 1 2 2 3 3 2 3 5 7 9 11 11 11 10 9 8 8 8 8 7 7 6 5 5
5 5 6 8 8 6 4 3 2 1 1 2 2 2 1 1 1 2 3 4 3 3 3 6 8 7 8 9 8 8 7 7 7 6 6 5 5 4
5 4 5 7 9 11 12 12 9 5 2 2 2 3 2 2 2 2 2 2 2 1 2 2 5 3 6 7 8 8 7 6 5 5 3 3 3 3
5 4 4 5 5 5 8 10 11 12 9 5 4 3 3 2 2 3 2 2 2 1 1 1 2 3 6 8 9 8 7 6 5 4 3 1 1 2
6 5 5 5 6 6 7 9 9 9 8 6 6 5 4 3 2 2 3 3 3 2 2 1 1 2 4 8 10 10 8 7 5 4 3 3 2 3
6 7 6 6 8 8 7 7 6 6 11 13 12 10 10 10 7 3 2 2 3 2 2 1 1 1 2 3 8 10 9 8 7 6 5 5 5 6
6 7 9 8 8 7 6 6 5 4 5 5 6 6 6 7 8 6 3 2 2 3 2 1 1 1 0 2 4 8 9 9 10 9 9 8 6 5
5 5 5 8 9 8 6 5 4 2 2 3 3 3 3 4 5 7 6 4 3 3 2 2 2 2 1 0 1 3 5 6 7 8 10 10 10 8
5 5 5 7 7 7 5 4 4 2 1 2 4 4 4 3 3 5 6 6 5 4 4 3 1 1 2 1 1 0 1 2 3 4 5 7 10 10
6 7 6 6 5 5 5 5 4 3 3 3 3 3 3 3 3 3 3 2 3 4 5 3 1 1 1 1 1 1 1 1 1 0 0 0 3 5
6 6 5 3 2 3 3 3 2 3 2 3 3 3 2 2 2 1 1 1 1 1 2 2 1 0 2 2 1 1 1 1 1 1 1 2 5 6
4 3 2 2 2 2 2 2 2 2 2 2 2 1 1 1 1 1 0 1 1 1 1 1 2 3 2 1 2 2 1 1 1 1 1 3 3 5
3 2 2 2 2 2 2 2 2 2 2 1 1 1 1 1 1 1 1 1 1 1 1 0 0 1 2 1 0 2 2 2 1 2 2 2 3 3
2 2 2 2 1 1 1 2 2 1 1 1 1 1 1 1 1 1 1 1 2 1 1 0 1 2 2 2 2 3 2 2 2 2 3 3 3 3
2 2 2 2 1 1 2 2 2 1 1 1 1 1 1 1 1 1 1 1 2 2 2 1 2 1 2 3 3 3 6 4 3 3 3 4 3 4
1 2 2 2 2 2 2 1 1 1 1 1 1 1 1 1 2 2 1 0 1 2 2 1 1 2 3 2 3 3 3 7 7 4 3 3 4 4
1 2 2 2 2 2 1 1 1 1 1 0 0 0 1 1 1 2 2 2 2 2 2 1 2 2 2 3 4 4 3 4 8 11 10 9 4 4
1 1 2 2 2 2 2 2 1 1 1 0 0 1 1 1 2 2 2 3 2 2 2 2 2 2 3 3 4 4 5 5 3 3 5 13 16 18
Wind_Direction
228 232 244 254 263 262 254 229 223 240 240 225 136 82 102 106 113 118 120 146 157 156 156 153 149 144 141 139 137 134 130 123 117 111 101 85 72 65
224 232 258 275 272 279 282 290 257 230 235 265 10 68 91 107 114 118 111 114 134 144 142 139 139 138 135 130 126 120 109 100 97 90 79 77 76 74
244 221 226 277 318 325 320 314 302 192 203 209 138 61 83 93 111 120 114 107 110 126 129 128 124 119 115 113 110 106 102 100 98 92 86 83 79 74
356 359 324 299 313 311 325 331 330 184 174 174 169 152 114 117 124 129 121 114 115 117 122 122 120 117 112 108 104 101 97 94 91 90 88 85 81 75
61 62 37 20 354 357 354 359 0 31 140 163 171 173 163 154 139 134 121 121 127 128 127 126 125 118 111 105 101 98 92 89 88 87 86 80 71 63
66 65 58 55 43 29 32 13 15 52 125 140 152 158 161 172 152 148 129 107 101 114 116 122 119 113 109 105 102 99 97 93 90 86 81 74 65 54
74 70 70 71 64 60 59 38 35 48 102 131 133 126 125 141 158 158 131 123 87 86 112 128 127 122 116 108 105 103 99 95 92 90 82 70 57 46
80 82 85 73 77 73 69 62 55 52 44 85 101 110 100 78 75 96 106 117 109 75 98 114 130 124 132 123 124 122 118 112 108 103 90 68 44 33
74 71 72 68 71 75 74 66 56 49 51 70 79 83 88 62 82 98 99 99 109 148 116 121 117 111 127 142 147 149 148 146 147 147 143 131 41 359
69 70 73 60 53 70 83 75 63 48 52 67 74 68 71 59 55 129 144 130 106 72 69 114 124 134 126 153 167 172 174 176 180 188 197 215 267 298
74 66 72 70 55 70 86 89 86 80 74 82 87 85 79 70 61 63 70 119 124 92 33 33 113 139 148 158 187 195 199 202 206 215 225 243 267 289
91 76 66 67 57 62 85 89 85 77 88 89 81 78 84 80 68 53 45 51 95 96 40 10 21 40 171 174 183 195 209 220 225 233 240 250 264 280
103 89 75 70 63 58 68 80 88 93 117 121 116 106 91 76 67 58 47 51 64 69 57 28 20 6 333 327 181 188 200 209 216 233 238 243 249 252
99 96 88 79 72 63 63 60 50 37 79 95 92 89 88 79 74 79 74 73 86 102 91 64 25 3 330 333 323 279 238 211 190 206 217 238 243 253
96 103 101 91 80 68 66 55 36 25 42 69 79 85 94 101 99 96 97 87 73 90 95 78 45 14 335 332 345 350 316 291 237 178 81 218 247 252
108 116 114 93 72 79 75 57 50 35 42 62 83 96 112 121 121 119 152 178 147 131 154 152 154 311 311 309 312 317 350 345 346 74 28 302 288 279
125 144 147 135 127 115 99 78 70 59 49 52 59 79 95 98 99 98 18 330 42 101 145 190 226 239 233 279 325 330 339 356 4 14 312 290 281 281
105 133 134 130 122 123 131 123 92 55 31 42 37 41 45 51 71 69 45 4 356 36 79 108 1 329 313 15 331 323 338 341 320 295 283 287 286 288
117 122 118 107 98 113 111 104 104 93 8 32 43 37 27 21 58 78 68 2 351 6 12 39 46 16 338 325 285 259 269 289 294 292 285 278 278 274
159 141 140 137 132 108 96 91 102 119 107 48 45 27 12 8 6 9 77 43 336 326 320 354 70 38 317 306 294 268 247 244 268 277 284 286 278 279
162 141 137 141 136 116 99 92 87 84 76 44 32 19 351 350 355 351 9 30 277 288 317 344 202 237 249 273 283 271 250 247 247 244 266 285 293 291
175 142 136 133 125 125 135 151 144 144 159 182 264 319 310 319 310 304 310 304 293 311 328 301 259 257 267 282 289 286 272 262 262 261 259 253 249 269
173 154 148 150 155 160 168 172 166 157 151 211 299 293 297 297 294 285 286 295 306 308 307 310 307 296 293 293 296 297 299 292 273 260 264 265 257 255
Height
1562 1563 1564 1564 1565 1566 1566 1567 1567 1566 1567 1568 1568 1568 1568 1568 1568 1568 1568 1568 1569 1569 1569 1570 1570 1570 1571 1571 1571 1571 1571 1571 1570 1571 1571 1571 1571 1570
1559 1559 1560 1561 1562 1562 1563 1563 1563 1563 1563 1563 1564 1565 1565 1565 1565 1565 1565 1565 1565 1566 1566 1567 1567 1567 1567 1567 1568 1567 1567 1567 1567 1567 1567 1567 1567 1567
1555 1556 1556 1557 1558 1558 1558 1559 1559 1559 1559 1559 1561 1561 1562 1562 1562 1562 1562 1562 1562 1563 1563 1563 1564 1564 1564 1564 1564 1564 1564 1564 1564 1564 1564 1564 1563 1563
1553 1553 1554 1554 1554 1555 1555 1555 1555 1555 1556 1555 1556 1557 1558 1558 1559 1559 1559 1559 1560 1560 1561 1561 1561 1561 1561 1561 1561 1561 1561 1561 1561 1561 1561 1561 1560 1560
1550 1551 1551 1551 1551 1551 1552 1552 1552 1552 1552 1552 1553 1554 1555 1555 1556 1556 1557 1557 1557 1557 1558 1558 1558 1558 1559 1559 1559 1559 1559 1559 1558 1558 1558 1558 1557 1557
1548 1548 1549 1549 1549 1549 1549 1549 1550 1549 1550 1550 1550 1551 1552 1553 1554 1554 1555 1555 1556 1556 1556 1556 1556 1556 1556 1557 1557 1557 1557 1556 1556 1555 1555 1555 1555 1554
1546 1546 1547 1547 1547 1547 1547 1547 1547 1547 1548 1548 1548 1549 1549 1550 1551 1552 1552 1553 1554 1554 1554 1554 1554 1554 1554 1555 1555 1555 1555 1554 1554 1553 1553 1552 1552 1552
1545 1545 1546 1545 1545 1546 1545 1545 1545 1545 1545 1546 1546 1546 1547 1548 1549 1550 1550 1551 1552 1553 1553 1553 1554 1553 1553 1554 1554 1554 1553 1553 1552 1552 1551 1551 1550 1549
1544 1544 1544 1544 1545 1545 1545 1544 1544 1544 1545 1545 1545 1545 1546 1547 1548 1548 1549 1550 1550 1552 1552 1552 1553 1553 1553 1553 1554 1553 1553 1552 1551 1550 1549 1548 1548 1547
1543 1543 1543 1543 1544 1544 1544 1544 1544 1544 1544 1544 1544 1544 1545 1546 1547 1548 1548 1549 1550 1551 1551 1552 1552 1552 1553 1553 1553 1552 1552 1551 1550 1549 1548 1547 1546 1546
1543 1543 1543 1543 1543 1544 1544 1543 1543 1544 1544 1545 1545 1545 1545 1546 1547 1547 1547 1548 1549 1549 1550 1551 1551 1551 1552 1552 1551 1551 1551 1550 1549 1548 1547 1546 1545 1545
1542 1542 1543 1543 1543 1544 1544 1544 1544 1544 1545 1545 1545 1546 1546 1546 1546 1547 1547 1547 1548 1548 1549 1549 1550 1550 1551 1551 1550 1550 1550 1549 1548 1547 1547 1546 1544 1543
1542 1542 1542 1543 1543 1543 1544 1544 1544 1545 1545 1545 1546 1546 1547 1547 1546 1546 1546 1547 1547 1547 1548 1548 1549 1549 1550 1549 1549 1549 1548 1547 1547 1546 1545 1544 1543 1542
1541 1542 1542 1543 1543 1543 1544 1544 1545 1545 1546 1547 1547 1547 1547 1547 1547 1547 1547 1547 1548 1548 1548 1548 1548 1548 1549 1548 1548 1548 1548 1547 1546 1545 1544 1543 1542 1541
1542 1542 1543 1543 1544 1544 1545 1545 1545 1546 1546 1547 1547 1548 1548 1548 1548 1548 1548 1548 1548 1548 1548 1548 1548 1548 1548 1548 1547 1547 1547 1546 1545 1544 1543 1542 1541 1540
1542 1542 1543 1544 1544 1545 1546 1546 1546 1547 1547 1548 1548 1548 1548 1549 1549 1549 1548 1548 1548 1548 1548 1548 1547 1547 1547 1547 1546 1546 1546 1545 1544 1543 1542 1541 1539 1538
1542 1542 1543 1544 1545 1546 1546 1547 1547 1547 1548 1548 1549 1549 1549 1549 1549 1549 1549 1549 1549 1549 1548 1548 1548 1547 1547 1546 1546 1545 1545 1544 1543 1541 1540 1539 1538 1536
1542 1543 1544 1545 1545 1546 1547 1547 1547 1548 1548 1549 1549 1549 1550 1550 1550 1549 1549 1549 1549 1549 1549 1548 1548 1547 1546 1546 1546 1544 1543 1542 1541 1540 1539 1537 1535 1534
1543 1544 1545 1545 1546 1547 1547 1548 1548 1548 1548 1548 1549 1549 1550 1550 1550 1550 1549 1549 1549 1549 1549 1548 1547 1546 1546 1545 1544 1544 1542 1541 1540 1538 1537 1535 1533 1531
1543 1544 1545 1546 1546 1547 1547 1548 1548 1548 1548 1549 1549 1549 1550 1550 1550 1550 1549 1549 1549 1548 1548 1547 1546 1545 1545 1544 1543 1542 1541 1539 1538 1536 1534 1533 1531 1529
1544 1544 1545 1546 1546 1546 1547 1547 1547 1548 1548 1549 1549 1549 1549 1549 1549 1549 1549 1549 1548 1548 1547 1546 1545 1545 1543 1543 1541 1540 1539 1538 1536 1534 1532 1530 1528 1526
1544 1544 1545 1545 1545 1546 1546 1547 1547 1547 1548 1548 1548 1549 1549 1549 1549 1549 1548 1548 1547 1547 1546 1545 1544 1543 1542 1541 1539 1538 1536 1535 1533 1531 1530 1528 1525 1522
1543 1544 1544 1544 1544 1545 1545 1546 1547 1547 1547 1547 1548 1548 1548 1548 1548 1547 1547 1547 1546 1545 1544 1543 1542 1541 1540 1539 1537 1536 1534 1532 1530 1528 1526 1525 1523 1520